Medicine Hat Airport, Alberta

Past 24 Hour Conditions

This table is a summary of hourly weather conditions for the past 24 hours. This summary includes the following parameters: temperature, humidity, dew point, wind speed and direction, air pressure, visibility and/or wind chill and humidex.
Date / Time
(MDT)
Conditions Temp (°F) Humidity (%) Dew Point (°F) Wind (mph) Pressure (inches) Visibility (miles)
24 April 2014
4:00 Partly Cloudy 39   95 37 SW 11 29.7 10
3:00 Cloudy 40 91 38 SSW 8 29.7 10
2:00 Light Rain 42 87 38 WSW 10 29.7 10
1:00 Light Rain 42 82 37 WSW 23 gust 34 29.7 10
00:00 Light Rain 41 93 39 W 14 gust 25 29.7 10
23 April 2014
23:00 Light Rain 41 91 39 W 9 29.7 10
22:00 Light Rain 42 80 37 WNW 21 29.6 10
21:00 Thunderstorm 47 67 37 N 9 29.6 30
20:00 Partly Cloudy 51 61 38 NNE 13 29.6 30
19:00 Partly Cloudy 55 36 29 SSW 3 29.5 30
18:00 Partly Cloudy 56 34 28 WSW 4 29.5 30
17:00 Partly Cloudy 57   38 32 WNW 7 29.5 30
16:00 Partly Cloudy 54 52 37 NW 13 gust 21 29.5 30
15:00 Partly Cloudy 53 56 37 WSW 14 gust 22 29.5 30
14:00 Partly Cloudy 52 63 40 NNW 17 gust 25 29.5 30
13:00 Light Rainshower 48 81 42 WNW 10 gust 19 29.5 30
12:00 Light Rainshower 50 64 38 WNW 20 gust 26 29.5 30
11:00 Partly Cloudy 49 43 28 W 21 gust 30 29.5 30
10:00 Partly Cloudy 48 43 27 W 21 gust 34 29.5 30
9:00 Partly Cloudy 45 48 26 WSW 26 gust 33 29.5 30
8:00 Partly Cloudy 44 54 29 WSW 20 gust 33 29.5 30
7:00 Cloudy 44 63 32 WSW 23 gust 30 29.4 30
6:00 Cloudy 44 77 37 SW 14 29.4 10
5:00 Cloudy 45 83 41 SW 13 gust 18 29.4 10
4:00 Cloudy 46 84 41 SW 11 29.4 10
N/A
Not available
 ↑ 
Highest temperature
 ↓ 
Lowest temperature

If you require additional historical weather information, please visit Climate Data Online.